Regional Weather Roundup
Issued by NWS Grand Forks, ND

Home | Current Version | Previous Version | Text Only | Print | Product List | Glossary On
Versions: 1 2 3 4 5 6 7 8 9 10 11 12 13 14 15 16 17 18 19 20 21 22 23 24 25 26 27 28 29 30 31 32 33 34 35 36 37 38 39 40 41 42 43 44 45 46 47 48 49 50
000
ASUS43 KFGF 271131
RWRFGF
PRAIRIE TO PINES  WEATHER ROUNDUP
NATIONAL WEATHER SERVICE EASTERN NORTH DAKOTA/GRAND FORKS ND
600 AM CDT THU APR 27 2017

 **SATELLITE DATA USED TO AUGMENT SKY COVER AT AUTOMATED STATIONS**
 *****  WEATHER ACROSS EASTERN NORTH DAKOTA  *****

CITY           SKY/WX    TMP DP  RH WIND       PRES   REMARKS
GRAND FORKS    CLOUDY    28  25  88 N14       29.72F WCI  17
GRAND FRKS AFB NOT AVBL
DEVILS LAKE    FAIR      27  22  81 N8        29.74S WCI  19
FARGO          MIX PCPN  26  23  88 N20       29.68F WCI  12
WAHPETON ARPT  CLOUDY    28  23  80 N17       29.67R WCI  16
$$

 ***** WEATHER ACROSS CENTRAL AND WESTERN NORTH DAKOTA  *****

CITY           SKY/WX    TMP DP  RH WIND       PRES   REMARKS
BISMARCK       FAIR      30  24  78 N7        29.74F WCI  23
MINOT          FAIR      24  19  81 NW7       29.76F WCI  16
JAMESTOWN      CLOUDY    30  26  85 N8        29.70S WCI  22
MINOT AFB      NOT AVBL
GARRISON         N/A     19  17  92 NW8       29.75F WCI   9
WILLISTON      FAIR      26  21  81 N3        29.76F
DICKINSON      FAIR      17  15  92 SE3       29.71R
HETTINGER      CLOUDY    22  20  92 CALM      29.71F
$$

 *****  OTHER AIRPORT OBSERVATIONS IN OUR AREA  *****

CITY           SKY/WX    TMP DP  RH WIND       PRES   REMARKS
WALHALLA       NOT AVBL
GRAFTON AIRPOR FAIR      25  23  93 NW6       29.76S WCI  18
VALLEY CITY AR MIX PCPN  27  27 100 N13       29.71F WCI  16
CANDO          NOT AVBL
CAVALIER APRT  FAIR      28  21  74 N7        29.74F WCI  21
GWINNER        CLOUDY    27  25  93 MISG      29.68F
SHEYENNE NWR     N/A     26  23  87 N8        29.95S WCI  18
ROLLA          FAIR      21  18  86 N10       29.76S WCI  10
 ***** THE ABOVE OBSERVATIONS ARE NON NWS ARE NOT QUALITY
       CONTROLLED AND MAY MIS-REPORT RAIN FOR SNOW...
$$

  *****  WEATHER ACROSS NORTHERN MINNESOTA  *****

CITY           SKY/WX    TMP DP  RH WIND       PRES   REMARKS
FLAG ISLAND    LGT SNOW  25  21  86 NE20      29.69S VSB 3/4 WCI  11
WARROAD        LGT SNOW  25  21  86 N8G17     29.69F WCI  16
ROSEAU         FLURRIES  25  19  80 N7        29.70F WCI  17
HALLOCK        FAIR      25  21  86 N3        29.74S
THF RVR FALLS  FLURRIES  23  20  88 N12       29.69F WCI  12
BAUDETTE       FLURRIES  23  15  71 NE9       29.66S WCI  13
WASKISH        CLOUDY    21  19  93 N6        29.65S WCI  14
CROOKSTON      CLOUDY    27  21  80 N10       29.72S WCI  17
STEPHEN NDAWN    N/A     19  18  93 NE5         N/A  WCI  13
GREENBUSH NDAW   N/A     23  23 100 NE9         N/A  WCI  13
$$
  *****  WEATHER ACROSS CENTRAL AND WEST MINNESOTA  *****

CITY           SKY/WX    TMP DP  RH WIND       PRES   REMARKS
FOSSTON        CLOUDY    21  18  86 N12       29.66S WCI   9
BEMIDJI        CLOUDY    21  16  81 N12       29.63R WCI   9
PARK RAPIDS    LGT SNOW  24  17  74 N10       29.59F WCI  14
ELBOW LAKE     CLOUDY    28  25  86 N14       29.62R WCI  17
WADENA         MIX PCPN  23  21  93 N7        29.59S WCI  15
DETROIT LAKES  CLOUDY    27  23  86 N7        29.63S WCI  19
MOORHEAD       LGT RAIN  25  23  93 N8        29.68S WCI  16
FERGUS FALLS   CLOUDY    27  21  80 N10G17    29.64R WCI  17
MORRIS MN      CLOUDY    28  27  93 NW15      29.60F WCI  17
STAPLES        CLOUDY    25  21  86 N9        29.57F WCI  15
$$
  *****  WEATHER ELSEWHERE ACROSS MINNESOTA  *****

CITY           SKY/WX    TMP DP  RH WIND       PRES   REMARKS
DULUTH         FRZ DRZL  23  21  92 N9        29.52F WCI  13
INTRNTL FALLS  CLOUDY    21  13  71 NE13      29.63F WCI   9
ELY            CLOUDY    19  16  86 N5        29.56S WCI  13
CLOQUET        CLOUDY    23  19  86 N15       29.53F WCI  10
WHEATON        CLOUDY    27  25  93 NW14      29.67R WCI  15
BRAINERD       LGT SNOW  25  22  88 N12G18    29.57S FOG     WCI  14
HIBBING        CLOUDY    20  18  92 N10       29.56F WCI   9
ALEXANDRIA     CLOUDY    28  23  81 N10       29.59S WCI  19
SAINT CLOUD    CLOUDY    30  28  92 N12       29.54F WCI  20
MINNEAPOLIS    CLOUDY    34  30  85 NW10      29.53S
$$

  *****  WEATHER ACROSS SOUTH DAKOTA  *****

CITY           SKY/WX    TMP DP  RH WIND       PRES   REMARKS
SIOUX FALLS    CLOUDY    30  27  88 NW16      29.64S WCI  19
BROOKINGS      CLOUDY    28  24  85 NW16      29.62S WCI  16
WATERTOWN      MOCLDY    27  22  81 N14       29.62S WCI  16
HURON          CLOUDY    30  24  78 N16       29.69F WCI  19
SISSETON         N/A     27  24  89 N17       29.65S WCI  14
ABERDEEN       CLOUDY    28  22  78 N10       29.70F WCI  19
MITCHELL       CLOUDY    32  26  78 NW13      29.69S WCI  22
PIERRE         CLOUDY    29  26  89 NW5       29.71S WCI  24
MOBRIDGE       CLOUDY    33  25  72 NW6       29.70S
RAPID CITY     MOCLDY    28  25  88 E3        29.64F
$$

  *****  SOME WEATHER IN NEARBY STATES *****

CITY           SKY/WX    TMP DP  RH WIND       PRES   REMARKS
GLASGOW MT     FAIR      32  21  64 E17       29.66S WCI  21
GREAT FALLS MT CLOUDY    37  34  89 SW9       29.60R
CHEYENNE WY    CLOUDY    38  34  85 SW15      29.58F
SCOTTSBLUFF NE FAIR      37  34  89 E8        29.57F
OMAHA NE       CLOUDY    36  28  73 N12       29.67R
DES MOINES IA  DRIZZLE   37  32  82 NW14G24   29.59R
DAVENPORT IA   LGT RAIN  38  35  89 W21G28    29.48R
CHICAGO IL     LGT RAIN  56  53  90 W8        29.27S
EAU CLAIRE WI  CLOUDY    33  27  78 N8        29.45F
LA CROSSE WI   LGT RAIN  37  35  92 NW13      29.45S FOG
$$

  *****  SOME NATIONAL WEATHER *****

CITY           SKY/WX    TMP DP  RH WIND       PRES   REMARKS
LA GUARDIA NY  FOG       58  56  93 CALM      29.89R VSB 1
RALEIGH NC     FAIR      63  58  83 S7        29.87R
ATLANTA GA     LGT RAIN  65  63  93 S10       29.81R
NEW ORLEANS LA FAIR      66  62  87 NW5       29.74R
OKLAHOMA CITY  MOCLDY    42  39  89 E3        29.74F
ALBUQUERQUE NM FAIR      54  27  35 S5        29.73F
SALT LAKE CITY MOCLDY    45  36  70 W14       29.78R
LOS ANGELES CA FAIR      57  55  93 S5        29.81F
BOISE ID       CLOUDY    39  35  86 W10       29.88R
SEATTLE WA     MOCLDY    44  38  79 SW10      30.03S
$$

*** WEATHER ACROSS MANITOBA...SASKATCHEWAN AND ONTARIO ***
                ***ONTARIO***

CITY           SKY/WX    TMP DP  RH WIND       PRES   REMARKS
GERALDTON      NOT AVBL
THUNDER BAY    NOT AVBL
SIOUX LOOKOUT  NOT AVBL
TORONTO        NOT AVBL
BIG TROUT LK   NOT AVBL
PICKLE LAKE    NOT AVBL
DRYDEN         NOT AVBL
KENORA         NOT AVBL
$$
                *** MANITOBA***

CITY           SKY/WX    TMP DP  RH WIND       PRES   REMARKS
BRANDON        NOT AVBL
DAUPHIN        NOT AVBL
ISLAND LAKE    NOT AVBL
PILOT MOUND    NOT AVBL
THE PAS        NOT AVBL
THOMPSON       NOT AVBL
WINNIPEG       NOT AVBL
$$
                ***SASKATCHEWAN***

CITY           SKY/WX    TMP DP  RH WIND       PRES   REMARKS
ESTEVAN        NOT AVBL
KINDERSLEY     NOT AVBL
LLOYDMINSTER   LGT SNOW  30  30 100 E8        29.77S WCI  23
PRINCE ALBERT  NOT AVBL
REGINA         NOT AVBL
YORKTON        NOT AVBL
N. BATTLEFORD  LGT SNOW  32 N/A N/A E16       29.79S WCI  21
LA RONGE       NOT AVBL
SASKATOON      NOT AVBL
SWIFT CURRENT  NOT AVBL
$$
NOTE: THESE ARE AUTOMATED STATIONS WITH LIMITED QUALITY CONTROL
      "FAIR" INDICATES FEW OR NO CLOUDS BELOW 12,000 FEET WITH NO
      SIGNIFICANT WEATHER AND/OR OBSTRUCTIONS TO VISIBILITY.
      SKY/WX - SKY CONDITION AND SIGNIFICANT WEATHER.
      TMP - AIR TEMPERATURE.    DP   - DEWPOINT TEMPERATURE.
      RH  - RELATIVE HUMIDITY.  PRES - PRESSURE.
      HX  - HEAT INDEX.         WCI  - WIND CHILL INDEX.
$



USA.gov is the U.S. government's official web portal to all federal, state and local government web resources and services.